This is the latest recevied weather packets stored in our database for station/object XW7RMR. If no packets are shown the sender has not sent any weather packets the latest 10 day(s).
| Time | Temp. | Humidity | Pressure | Rain* | Wind** | Luminosity | Snow |
|---|---|---|---|---|---|---|---|
| 1777130379 | 12.22° C | 43% | 1010.9 hPa | 0 mm | - | 205 W/m² | - |
| 1777130075 | 11.67° C | 43% | 1010.9 hPa | 0 mm | - | 191 W/m² | - |
| 1777129772 | 12.22° C | 44% | 1010.7 hPa | 0 mm | - | 177 W/m² | - |
| 1777129472 | 11.67° C | 43% | 1010.9 hPa | 0 mm | - | 167 W/m² | - |
| 1777129171 | 11.67° C | 43% | 1011 hPa | 0 mm | - | 154 W/m² | - |
| 1777128867 | 11.67° C | 43% | 1011 hPa | 0 mm | - | 141 W/m² | - |
| 1777128564 | 11.67° C | 43% | 1011 hPa | 0 mm | - | 127 W/m² | - |
| 1777128260 | 11.67° C | 43% | 1010.9 hPa | 0 mm | - | 117 W/m² | - |
| 1777127959 | 11.67° C | 43% | 1010.9 hPa | 0 mm | - | 108 W/m² | - |
| 1777127656 | 11.67° C | 43% | 1011 hPa | 0 mm | - | 98 W/m² | - |
| 1777127352 | 11.11° C | 43% | 1010.9 hPa | 0 mm | - | 88 W/m² | - |
| 1777127049 | 11.11° C | 44% | 1011 hPa | 0 mm | - | 78 W/m² | - |
| 1777126744 | 11.11° C | 44% | 1010.9 hPa | 0 mm | - | 63 W/m² | - |
| 1777126441 | 10.56° C | 45% | 1011 hPa | 0 mm | - | 59 W/m² | - |
| 1777126136 | 10.56° C | 45% | 1010.9 hPa | 0 mm | - | 52 W/m² | - |
| 1777125833 | 10.56° C | 46% | 1010.8 hPa | 0 mm | - | 43 W/m² | - |
| 1777125529 | 10.56° C | 45% | 1010.8 hPa | 0 mm | - | 36 W/m² | - |
| 1777125224 | 10° C | 46% | 1010.6 hPa | 0 mm | - | 32 W/m² | - |
| 1777124919 | 10° C | 47% | 1010.6 hPa | 0 mm | - | 26 W/m² | - |
| 1777124617 | 10° C | 47% | 1010.9 hPa | 0 mm | - | 23 W/m² | - |
| 1777124312 | 9.44° C | 47% | 1010.8 hPa | 0 mm | - | 21 W/m² | - |
| 1777124009 | 9.44° C | 48% | 1010.7 hPa | 0 mm | - | 17 W/m² | - |
| 1777123705 | 9.44° C | 48% | 1010.7 hPa | 0 mm | - | 14 W/m² | - |
| 1777123401 | 9.44° C | 50% | 1010.9 hPa | 0 mm | - | 11 W/m² | - |
| 1777123098 | 9.44° C | 47% | 1010.7 hPa | 0 mm | - | 8 W/m² | - |
* Rain latest hour (hover to see other rain measurements)
** Current wind speed in m/s (hover to see current wind gust speed)